Regional Weather Roundup
Issued by NWS

Home | Current Version | Previous Version | Graphics & Text | Print | Product List | Glossary On
Versions: 1 2 3 4 5 6 7 8 9 10 11 12 13 14 15 16 17 18 19 20 21 22 23 24 25 26 27 28 29 30 31 32 33 34 35 36 37 38 39 40 41 42 43 44 45 46 47 48 49 50
000
ASUS43 KLSX 211557
RWRMO

WEATHER SUMMARY FOR MISSOURI
NATIONAL WEATHER SERVICE SPRINGFIELD MO
1100 AM CDT MON MAY 21 2018

NOTE: "FAIR" INDICATES FEW OR NO CLOUDS BELOW 12,000 FEET WITH NO
       SIGNIFICANT WEATHER AND/OR OBSTRUCTIONS TO VISIBILITY.
       CURRENT SKY AND/OR WEATHER CONDITIONS ARE NOT AVAILABLE FOR
       CHILLICOTHE AND FARMINGTON.

MOZ001>031-035>038-043-044-053-054-211700-
...NORTHERN AND WESTERN MISSOURI...

CITY           SKY/WX    TMP DP  RH WIND       PRES   REMARKS
KANSAS CTY INT CLOUDY    60  57  89 SW8       30.09R
KANSAS C DTWN  CLOUDY    62  57  83 W8        30.08R
LEE`S SUMMIT   CLOUDY    66  59  78 W10       30.08S
ST JOSEPH      CLOUDY    61  58  90 SW6       30.08R

$$
MOZ066>068-077>081-088>096-101>105-211700-
...SOUTHWEST MISSOURI...

CITY           SKY/WX    TMP DP  RH WIND       PRES   REMARKS
SPRINGFIELD    CLOUDY    73  65  75 SW7       30.08R
JOPLIN         PTSUNNY   69  64  84 W5        30.10R
BRANSON        PTSUNNY   73  68  83 SW7       30.10S

$$
MOZ032>034-039>042-045>050-055>058-069>072-211700-
...CENTRAL MISSOURI...

CITY           SKY/WX    TMP DP  RH WIND       PRES   REMARKS
COLUMBIA       NOT AVBL
JEFFERSON CITY CLOUDY    71  66  84 SW8       30.05S
ROLLA          CLOUDY    71  66  84 SW12      30.08R
SEDALIA        CLOUDY    71  67  87 W9        30.07S
WARRENSBURG    CLOUDY    66  61  82 W6        30.07S

$$
MOZ051-052-059>065-211700-
...EAST CENTRAL MISSOURI...

CITY           SKY/WX    TMP DP  RH WIND       PRES   REMARKS
ST LOUIS INTL  CLOUDY    73  68  84 SW8       30.06S
SPIRIT OF STL  CLOUDY    72  66  83 SW5       30.04F

$$
MOZ072>076-082>087-097>100-106>115-211700-
...SOUTH CENTRAL AND SOUTHEAST MISSOURI...

CITY           SKY/WX    TMP DP  RH WIND       PRES   REMARKS
CAPE GIRARDEAU FAIR      73  68  84 S7        30.08S
POPLAR BLUFF   CLOUDY    74  69  85 S9        30.08R
WEST PLAINS    CLOUDY    72  66  81 W8        30.10S

$$



USA.gov is the U.S. government's official web portal to all federal, state and local government web resources and services.